User: anonymous   Login
Location: Unspecified
(0.0000°N, 0.0000°E)
Time: 01:39:44
(UTC+00:00)
Language:

USA 250 - Orbit

View from above orbital plane
View from above orbital plane
View from above satellite
View from above satellite

Ground track
Ground track

The orbit data is extracted from the following two-line orbital elements,

1 39652U 14020A   17111.07313100 0.00000000  00000-0  00000-0 0    01
2 39652   2.7917 317.6397 0003204  41.5792 318.4688  1.00270000    04
Epoch (UTC): 21 April 2017 01:45:18
Eccentricity: 0.0003204
inclination: 2.7917°
perigee height: 35773 km
apogee height: 35800 km
right ascension of ascending node: 317.6397°
argument of perigee: 41.5792°
revolutions per day: 1.00270000
mean anomaly at epoch: 318.4688°
orbit number at epoch: 0

The dashed part of the orbit path shows where the satellite is in the earth's shadow,  

DLR